Location: Aiyede
(8.4833°N, 4.4500°E)
Time: 09:16:01
(UTC+00:00)

Aureole 2 Rocket - Pass Details

Date: 24 September 2020
Orbit: 302 x 416 km, 73.9° (Epoch: 22 October)

Event Time Altitude Azimuth Distance (km) Brightness Sun altitude
Rises 18:56:04 0° 195° (SSW) 2,322 6.2 -20.4°
Reaches altitude 10° 18:58:04 10° 197° (SSW) 1,476 5.2 -20.9°
Enters shadow 19:00:39 52° 211° (SSW) 522 2.8 -21.6°
